This demonstration page uses our WeatherBlox Daily Observations layout. Learn more.

Left ArrowRight Arrow

47.50024, -111.30081

Hourly Observations for January 13, 2016

Temp ( °F °C ) Dew Point ( °F °C ) Humidity (%) Winds ( mph kmh ) Pressure ( in mb ) Visibility ( mi km ) Precip ( " mm )
12:53 am 00:53 Mostly Cloudy 38 3.3 26 -3.3 62 62 SW 23 37 29.88 1012 10 16 0.00 0.00
1:53 am 01:53 Clear 38 3.3 27 -2.8 65 65 SW 22 35 29.85 1011 10 16 0.00 0.00
2:53 am 02:53 Clear 37 2.8 28 -2.2 70 70 SSW 21 33 29.85 1011 10 16 0.00 0.00
3:53 am 03:53 Clear 39 3.9 28 -2.2 65 65 SSW 16 26 29.82 1010 10 16 0.00 0.00
4:53 am 04:53 Clear 40 4.4 28 -2.2 63 63 SSW 29 46 29.78 1008 10 16 0.00 0.00
5:53 am 05:53 Clear 40 4.4 27 -2.8 60 60 SW 29 46 29.76 1008 10 16 0.00 0.00
6:53 am 06:53 Clear 38 3.3 27 -2.8 65 65 S 10 17 29.76 1008 10 16 0.00 0.00
7:53 am 07:53 Clear 38 3.3 27 -2.8 65 65 SSW 28 44 29.72 1006 10 16 0.00 0.00
8:53 am 08:53 Partly Cloudy 38 3.3 25 -3.9 60 60 SSW 18 30 29.74 1007 10 16 0.00 0.00
9:53 am 09:53 Mostly Cloudy 38 3.3 27 -2.8 65 65 S 10 17 29.74 1007 10 16 0.00 0.00
10:53 am 10:53 Mostly Sunny 39 3.9 26 -3.3 60 60 S 21 33 29.73 1007 10 16 0.00 0.00
11:53 am 11:53 Sunny 40 4.4 26 -3.3 58 58 SSW 31 50 29.64 1004 10 16 0.00 0.00
12:53 pm 12:53 Sunny 41 5 26 -3.3 55 55 SW 16 26 29.64 1004 10 16 0.00 0.00
1:53 pm 13:53 Sunny 42 5.6 27 -2.8 55 55 SW 24 39 29.59 1002 10 16 0.00 0.00
2:53 pm 14:53 Sunny 40 4.4 28 -2.2 63 63 SSW 22 35 29.60 1002 10 16 0.00 0.00
3:53 pm 15:53 Sunny 41 5 28 -2.2 60 60 SSW 17 28 29.60 1002 10 16 0.00 0.00
4:53 pm 16:53 Sunny 41 5 28 -2.2 60 60 SSW 17 28 29.59 1002 10 16 0.00 0.00
5:53 pm 17:53 Cloudy 41 5 28 -2.2 60 60 SSW 22 35 29.58 1002 10 16 0.00 0.00
6:53 pm 18:53 Mostly Cloudy 40 4.4 29 -1.7 65 65 SW 21 33 29.58 1002 10 16 0.00 0.00
7:53 pm 19:53 Cloudy 38 3.3 30 -1.1 73 73 SW 17 28 29.60 1002 10 16 0.00 0.00
8:53 pm 20:53 Cloudy 38 3.3 30 -1.1 73 73 SW 13 20 29.59 1002 10 16 0.00 0.03
9:53 pm 21:53 Cloudy 38 3.3 31 -0.6 76 76 SW 15 24 29.58 1002 10 16 0.00 0.03
10:53 pm 22:53 Cloudy with Light Rain 36 2.2 30 -1.1 79 79 W 7 11 29.59 1002 10 16 0.00 0.03
11:53 pm 23:53 Cloudy with Light Rain 37 2.8 30 -1.1 76 76 NW 13 20 29.61 1003 10 16 0.00 0.03

Powered by AerisWeather